Regional Weather Roundup
Issued by NWS Boston, MA

Home | Current Version | Previous Version | Text Only | Print | Product List | Glossary On
Versions: 1 2 3 4 5 6 7 8 9 10 11 12 13 14 15 16 17 18 19 20 21 22 23 24 25 26 27 28 29 30 31 32 33 34 35 36 37 38 39 40 41 42 43 44 45 46
000
ASUS41 KBOX 290010
RWRBOX

REGIONAL WEATHER ROUNDUP
NATIONAL WEATHER SERVICE TAUNTON MA
800 PM EDT THU MAY 28 2015

NOTE:  "FAIR" INDICATES FEW OR NO CLOUDS BELOW 12,000 FEET WITH NO
SIGNIFICANT WEATHER AND/OR OBSTRUCTIONS TO VISIBILITY.  THE FOLLOWING
OBSERVATION LOCATIONS DO NOT REPORT PRESENT WEATHER...PROVINCETOWN...
SMITHFIELD...BLOCK ISLAND...KEENE...AND OXFORD.

MAZALL-290100-
EASTERN MASSACHUSETTS

CITY           SKY/WX    TMP DP  RH WIND       PRES   REMARKS
BOSTON         CLOUDY    77  63  61 SW12      30.11R
6HR MIN TEMP:  77; 6HR MAX TEMP:  86; 6HR PCP: TRACE;

BEVERLY        CLOUDY    71  65  81 W6        30.10R
LAWRENCE       CLOUDY    73  66  78 W9        30.12R
BEDFORD        CLOUDY    71  66  84 W8        30.11R
BLUE HILL        N/A     73  65  75 SW9       30.13R
NORWOOD        CLOUDY    77  66  68 SW7       30.11R
MARSHFIELD     CLOUDY    72  66  83 SW8       30.14R
PLYMOUTH       CLOUDY    68  63  84 SW10G20   30.13F
TAUNTON        CLOUDY    70  63  78 VRB6      30.13S
NEW BEDFORD    MOCLDY    64  61  90 SW12      30.14F
$$

MAZALL-290100-
CAPE COD AND THE ISLANDS

CITY           SKY/WX    TMP DP  RH WIND       PRES   REMARKS
FALMOUTH       CLOUDY    64  61  88 SW18      30.16F
HYANNIS        MOCLDY    65  60  84 SW21      30.15S
CHATHAM        MOCLDY    62  60  93 SW10G22   30.17S
PROVINCETOWN   MOCLDY    61  57  88 SW16G23   30.13S
NANTUCKET      MOCLDY    60  56  86 SW8       30.19S
MARTHAS VNYRD  MOCLDY    64  59  83 SW14      30.17F
$$

MAZALL-290100-
CENTRAL AND WESTERN MASSACHUSETTS

CITY           SKY/WX    TMP DP  RH WIND       PRES   REMARKS
WORCESTER      MOCLDY    70  61  73 W13       30.16R
6HR MIN TEMP:  67; 6HR MAX TEMP:  83; 6HR PCP:  0.01;

FITCHBURG      MOCLDY    73  59  61 NW10      30.15R
ORANGE         PTCLDY    70  55  59 NW10      30.17R
SPRINGFIELD    PTCLDY    74  56  52 NW13      30.15R
WESTFIELD      PTCLDY    74  54  49 NW8       30.17R
NORTH ADAMS    CLOUDY    67  54  63 W5        30.22R
PITTSFIELD     CLEAR     65  53  65 NW14G20   30.21R
$$

RIZALL-290100-
RHODE ISLAND

CITY           SKY/WX    TMP DP  RH WIND       PRES   REMARKS
PROVIDENCE     CLOUDY    69  62  78 S10       30.14S
6HR MIN TEMP:  69; 6HR MAX TEMP:  82;

NEWPORT        CLOUDY    61  58  90 S9        30.15F
BLOCK ISLAND   CLOUDY    61  55  82 SW16      30.19R
SMITHFIELD     CLOUDY   N/A N/A N/A SW3       30.15R
WESTERLY       CLOUDY    63  59  87 CALM      30.17S
$$

CTZALL-290100-
CONNECTICUT

CITY           SKY/WX    TMP DP  RH WIND       PRES   REMARKS
BRADLEY INTL   MOCLDY    75  59  57 N13       30.15R
6HR MIN TEMP:  75; 6HR MAX TEMP:  83; 6HR PCP:  0.04;

HARTFORD       CLOUDY    76  66  71 S6        30.13R
BRIDGEPORT     CLOUDY    71  63  75 SW8       30.14R
DANBURY        MOCLDY    73  66  78 W6        30.17R
GROTON         CLOUDY    63  59  87 SW5       30.15S
NEW HAVEN      CLOUDY    70  62  76 SW5       30.14R
CHESTER        NOT AVBL
MERIDEN        CLOUDY    74  66  76 S3        30.14S
WILLIMANTIC    CLOUDY    75  66  73 SW5       30.15R
OXFORD         PTCLDY    72  64  78 N7        30.19R
$$

MEZ002-015-021-024-NHZ003-005-008-011-012-014-VTZ005-008-290100-
NORTHERN NEW ENGLAND

CITY           SKY/WX    TMP DP  RH WIND       PRES   REMARKS
PORTLAND ME    CLOUDY    72  68  87 VRB6      30.10R
6HR MIN TEMP:  70; 6HR MAX TEMP:  80; 6HR PCP:  0.37;

BANGOR ME      CLOUDY    66  64  93 SW8       30.10R
CONCORD NH     MOCLDY    73  54  51 NW20      30.14R
MANCHESTER NH  MOCLDY    77  54  44 NW12G22   30.11R
NASHUA NH      MOCLDY    76  58  53 NW10      30.13R
PORTSMOUTH NH  MOCLDY    74  64  70 W3        30.08R
JAFFREY NH     CLEAR     69  54  58 VRB7      30.19R
KEENE NH       CLEAR     70  54  56 NW6       30.19R
BURLINGTON VT  MOCLDY    67  55  65 W7        30.20R
MT. WASHINGTON LGT RAIN  45  45 100 NW35        N/A  VSB 0
$$

NYZ052-076-290100-
EASTERN NEW YORK

CITY           SKY/WX    TMP DP  RH WIND       PRES   REMARKS
ALBANY         MOCLDY    70  53  54 NW8       30.23R
6HR MIN TEMP:  70; 6HR MAX TEMP:  82; 6HR PCP: TRACE;

NEW YORK CITY  CLOUDY    78  63  59 NE12      30.14R
6HR MIN TEMP:  77; 6HR MAX TEMP:  84; 6HR PCP: TRACE;

$$

ANZALL-290100-
MARINE OBSERVATIONS

STATION/POSITION TIME  TEMP    WIND        PRES    VSBY  WAVE
                       AIR SEA DIR/SP/G                  HT/PER
                 (UTC) (F)     (DEG/KT/KT) (MB)    (MI)  (FT/S)
BOSTON BUOY      2350   68 52  220/  8/ 10   N/A           2/ 4
BUZZARDS BAY     0000          220/ 17/ 19   N/A
NANTUCKET SOUND  2350   61 60  220/ 14/ 16   N/A           1/ 3
MASS BAY-STELLWA 2304   59 49  230/  8/ 10   N/A    1 5/8  3/ 5
ISLE OF SHOALS   0000   71     250/ 16/ 16   N/A
S OF BLOCK IS    2308      56                N/A           4/ 6
$$

......................KEY.........................
  SKY/WX - SKY CONDITION/PRESENT WEATHER
  TMP    - TEMPERATURE IN FAHRENHEIT
  DWPT   - DEWPOINT IN FAHRENHEIT
  RH     - RELATIVE HUMIDITY IN PERCENT
  WIND   - DIRECTION AND SPEED IN MPH
  PRES   - MEAN SEA LEVEL PRESSURE IN INCHES OF HG
  WCI    - WIND CHILL INDEX
  VSB    - VISIBILITY IN MILES
  HX     - HEAT INDEX
  TC     - TEMPERATURE IN CELSIUS
  VRB    - VARIABLE WIND DIRECTION
  N/A    - NOT AVAILABLE


USA.gov is the U.S. government's official web portal to all federal, state and local government web resources and services.